Wind_Speed
9 8 8 7 6 5 5 6 8 9 10 12 14 16 16 17 19 20 22 23 23 24 24 25 25 25 25 25 25 25 24 24 24 24 24 24 25 25
10 9 8 7 6 5 6 7 8 9 10 12 14 15 16 17 18 20 22 23 23 23 24 25 25 25 26 26 26 26 26 26 26 26 25 25 25 25
10 10 9 7 6 6 6 7 8 9 11 12 14 15 16 17 18 20 21 22 23 24 24 25 26 25 26 26 27 27 27 27 27 26 26 26 26 26
11 11 10 8 8 8 8 8 9 10 11 13 14 15 17 18 19 20 22 22 24 25 25 26 27 26 27 28 28 28 28 28 28 28 27 27 27 28
12 11 11 10 10 10 10 10 10 11 12 13 14 15 17 18 20 21 22 23 24 26 26 27 28 28 28 28 28 29 28 28 29 29 29 29 29 29
14 13 12 12 12 12 12 11 12 12 13 14 15 16 17 18 20 21 23 24 25 26 27 28 29 29 29 30 30 30 30 29 29 30 30 31 30 30
16 15 14 14 14 14 14 13 13 13 14 14 15 16 17 18 19 21 22 23 24 26 27 27 28 29 28 29 30 31 31 31 30 30 31 31 31 31
17 17 17 16 16 16 16 16 15 15 15 15 16 17 17 18 19 20 21 22 23 24 25 26 27 27 28 28 29 30 31 31 31 31 31 31 31 31
19 19 19 19 18 18 18 17 17 17 17 17 17 18 18 19 20 21 21 22 23 24 25 25 27 27 28 28 28 29 30 30 31 31 31 31 31 31
22 22 22 21 21 20 20 19 19 19 19 20 19 19 20 20 21 21 22 23 24 25 25 26 27 28 29 29 29 30 31 31 32 32 32 31 32 32
25 24 24 24 23 23 22 21 21 21 21 21 21 21 22 22 23 23 24 24 24 25 26 26 28 29 29 29 30 31 32 32 32 33 33 33 33 33
28 28 27 26 26 26 26 25 24 24 24 24 24 24 24 24 24 25 26 26 26 26 27 28 29 29 29 29 30 31 32 33 33 33 33 34 35 35
31 31 31 30 30 30 29 29 28 28 28 27 27 28 27 27 28 28 28 28 28 28 29 29 30 30 31 31 30 31 32 33 34 34 34 35 35 35
35 34 35 34 34 33 33 32 32 32 31 31 30 30 31 30 30 30 30 30 31 31 31 31 31 32 32 32 31 32 32 32 32 33 34 34 34 34
38 38 38 38 37 37 36 35 34 34 34 34 33 33 33 33 32 33 33 34 33 33 33 33 33 33 33 33 32 32 33 33 33 34 34 35 34 34
42 41 41 41 41 40 39 38 37 37 37 37 36 36 36 36 36 36 36 36 36 35 35 35 35 35 35 34 34 34 34 34 34 35 35 35 35 35
45 45 44 44 43 42 41 41 41 40 40 40 40 39 39 38 38 39 39 39 38 37 37 37 37 36 36 36 36 36 35 35 35 36 36 35 35 35
48 47 47 47 46 46 45 45 44 43 43 42 42 42 42 42 41 41 41 41 41 41 40 39 39 39 38 37 37 37 36 36 36 36 36 35 35 35
50 50 49 49 49 49 49 48 47 47 46 46 45 45 44 44 44 44 43 42 43 42 42 41 41 40 40 39 37 37 36 36 36 36 35 35 35 36
53 52 52 51 51 51 51 51 50 49 49 48 48 47 46 47 46 46 45 44 43 43 43 42 42 41 40 40 38 38 37 36 36 36 36 36 36 36
54 53 53 53 53 52 52 51 51 50 49 49 49 48 48 48 48 47 46 45 45 44 44 43 42 41 41 40 40 39 39 38 37 36 36 36 36 36
54 53 53 52 52 51 51 52 52 51 50 49 49 49 49 48 48 47 46 45 45 44 44 43 43 42 42 42 41 40 39 39 38 38 37 36 35 35
53 52 52 52 51 51 51 51 52 52 50 49 49 49 48 47 47 47 46 45 45 45 44 44 44 43 43 43 42 41 41 40 39 39 38 37 36 35
Wind_Direction
343 338 335 323 302 284 266 254 248 243 241 236 232 230 228 229 229 228 228 227 227 227 227 226 225 226 227 229 230 231 233 234 235 236 239 241 242 244
341 338 333 327 314 293 274 262 255 251 248 242 238 235 232 232 233 231 230 229 230 230 229 228 227 227 228 231 233 234 234 235 235 237 240 242 245 248
336 334 332 322 314 298 285 273 264 258 254 250 244 240 238 238 236 234 231 230 229 230 231 230 231 231 230 232 234 236 236 236 237 240 243 243 246 250
328 327 324 316 306 297 289 281 271 264 259 255 250 245 243 241 239 237 235 231 229 231 232 232 232 233 234 234 235 237 239 239 240 241 243 245 248 251
319 317 315 310 304 298 292 286 278 271 263 259 254 249 245 243 241 238 236 234 233 233 233 233 234 235 237 237 239 240 242 242 243 244 246 248 251 253
313 313 312 309 303 297 292 286 279 274 269 262 257 252 248 245 244 241 238 237 237 236 236 236 237 239 239 239 240 241 243 245 247 247 249 251 252 254
306 305 304 304 301 297 291 286 280 276 272 266 261 256 252 248 246 243 240 239 239 239 239 239 239 240 241 242 241 242 245 246 247 249 250 252 253 254
301 300 299 299 297 294 289 285 281 277 273 268 263 259 255 250 247 243 241 239 240 240 240 241 241 241 241 243 243 243 244 246 248 250 251 252 254 255
296 296 296 295 294 291 287 283 281 277 273 269 264 260 257 252 249 245 243 240 240 241 239 241 242 242 243 244 243 244 245 247 249 250 251 252 254 256
292 291 291 291 290 288 286 282 279 275 271 268 264 261 258 254 252 249 246 244 244 243 242 242 243 244 244 245 245 246 247 249 250 251 252 253 255 257
288 288 287 286 285 284 283 281 279 275 271 267 263 261 258 256 254 252 249 247 246 246 246 246 246 248 248 248 248 248 249 250 252 253 253 254 255 256
285 285 284 282 281 280 279 278 277 275 272 269 265 261 259 257 256 254 251 249 247 247 248 249 250 250 250 250 251 250 250 252 253 254 255 255 255 256
283 282 281 280 279 279 277 276 275 273 272 270 266 262 259 258 257 254 252 252 250 249 250 251 252 252 253 253 253 253 252 253 253 254 256 257 257 258
281 280 279 278 278 277 276 275 273 272 270 268 266 263 259 257 256 254 253 252 252 251 252 253 254 253 254 255 255 255 254 254 255 256 256 256 258 260
281 279 278 277 276 276 275 273 271 270 269 267 265 263 260 258 256 255 253 253 253 253 253 254 253 253 254 255 255 255 255 254 255 257 257 258 259 260
280 279 278 277 275 274 272 271 270 268 267 266 265 263 260 257 256 255 254 254 254 254 254 254 254 254 254 255 256 257 257 257 256 256 258 260 260 259
279 278 277 276 273 271 270 269 269 268 266 265 263 262 260 258 257 256 255 254 254 255 254 254 254 254 254 255 257 257 258 258 258 258 259 259 259 259
278 276 275 274 272 270 268 268 267 267 265 264 263 262 259 258 257 256 255 255 255 255 254 253 253 254 255 256 256 257 258 258 258 258 258 258 258 258
277 275 273 272 270 269 267 266 266 265 264 264 263 262 259 257 256 256 255 254 254 254 253 253 254 254 255 255 256 256 256 257 257 257 257 258 258 258
277 274 272 271 270 269 267 266 265 264 264 263 262 261 259 257 255 255 254 253 253 253 253 253 254 255 256 255 255 256 256 257 257 257 257 258 258 258
277 275 273 271 269 268 267 264 263 262 262 261 261 259 258 256 254 254 254 253 252 252 253 252 252 253 253 254 253 254 255 256 257 256 257 258 259 259
277 275 273 271 269 267 266 264 262 261 260 259 259 258 257 255 253 252 253 252 251 252 252 251 250 251 252 252 253 253 254 255 256 256 256 257 259 260
277 275 274 272 268 266 265 264 262 260 259 257 256 256 256 255 253 252 251 251 250 250 250 249 249 250 251 251 252 253 253 253 255 256 256 257 257 258
Height
5811 5809 5808 5807 5806 5805 5805 5806 5807 5807 5808 5809 5811 5812 5814 5816 5818 5820 5822 5824 5827 5830 5832 5835 5838 5841 5844 5846 5848 5851 5853 5856 5858 5860 5862 5863 5865 5866
5810 5808 5806 5805 5804 5804 5804 5804 5804 5805 5805 5806 5807 5809 5810 5812 5814 5815 5818 5820 5822 5825 5827 5830 5833 5836 5838 5841 5844 5846 5848 5850 5852 5854 5856 5858 5859 5860
5809 5807 5805 5804 5803 5802 5802 5802 5802 5802 5802 5803 5804 5805 5806 5807 5809 5811 5813 5815 5817 5820 5822 5825 5828 5830 5833 5836 5838 5840 5843 5845 5847 5849 5850 5852 5853 5855
5808 5806 5804 5803 5802 5801 5800 5800 5799 5799 5799 5799 5800 5801 5802 5803 5804 5806 5808 5810 5812 5815 5817 5820 5822 5825 5827 5830 5832 5834 5836 5839 5841 5843 5844 5846 5847 5848
5806 5804 5802 5801 5800 5799 5798 5797 5796 5796 5796 5796 5796 5796 5797 5798 5799 5800 5802 5804 5806 5809 5811 5814 5816 5818 5821 5823 5826 5828 5830 5832 5834 5836 5837 5839 5840 5841
5803 5801 5800 5798 5797 5796 5795 5794 5793 5792 5792 5792 5792 5792 5792 5793 5794 5795 5797 5799 5801 5803 5805 5807 5810 5812 5814 5816 5819 5821 5823 5825 5827 5828 5830 5832 5833 5834
5800 5798 5797 5795 5794 5792 5791 5790 5789 5789 5788 5788 5787 5787 5788 5788 5789 5790 5791 5793 5795 5797 5799 5801 5803 5805 5807 5809 5811 5814 5816 5818 5819 5821 5822 5824 5825 5826
5796 5794 5793 5791 5790 5788 5787 5786 5785 5784 5784 5783 5783 5783 5783 5783 5784 5785 5786 5787 5789 5791 5793 5794 5796 5798 5800 5802 5804 5806 5808 5810 5811 5813 5814 5816 5817 5818
5791 5790 5788 5787 5785 5783 5782 5781 5780 5779 5779 5778 5778 5778 5778 5778 5778 5779 5780 5781 5783 5784 5786 5787 5789 5791 5793 5794 5796 5798 5800 5801 5803 5805 5806 5807 5809 5809
5785 5783 5782 5780 5779 5777 5776 5775 5774 5773 5772 5772 5772 5772 5772 5772 5773 5773 5774 5775 5776 5777 5779 5781 5782 5783 5785 5786 5788 5790 5791 5793 5795 5796 5797 5799 5800 5801
5777 5776 5775 5773 5772 5770 5769 5768 5767 5766 5766 5765 5765 5765 5766 5766 5766 5767 5768 5768 5769 5770 5772 5773 5774 5776 5777 5778 5779 5781 5783 5784 5786 5787 5788 5790 5791 5792
5769 5768 5766 5765 5764 5763 5762 5761 5760 5759 5758 5758 5758 5758 5758 5759 5759 5759 5760 5761 5762 5763 5764 5765 5766 5767 5769 5770 5771 5772 5773 5775 5776 5778 5779 5780 5781 5782
5759 5758 5757 5756 5755 5754 5753 5752 5751 5750 5749 5749 5749 5749 5750 5750 5751 5751 5752 5753 5754 5755 5756 5757 5758 5759 5760 5761 5762 5763 5764 5766 5767 5768 5769 5771 5772 5773
5748 5747 5746 5745 5744 5743 5742 5741 5740 5740 5739 5739 5739 5739 5740 5741 5741 5742 5743 5744 5745 5746 5747 5747 5748 5749 5751 5752 5753 5754 5755 5756 5757 5759 5760 5761 5762 5762
5736 5735 5734 5733 5732 5731 5730 5729 5729 5728 5728 5728 5728 5728 5729 5730 5731 5731 5732 5733 5735 5736 5737 5738 5739 5740 5741 5742 5743 5744 5745 5746 5748 5749 5750 5751 5752 5752
5723 5722 5721 5720 5719 5718 5718 5717 5716 5716 5716 5716 5716 5716 5717 5718 5719 5720 5721 5722 5724 5725 5726 5727 5728 5729 5730 5732 5733 5734 5735 5737 5738 5739 5740 5740 5741 5742
5708 5707 5706 5705 5705 5704 5704 5703 5703 5703 5703 5703 5703 5703 5704 5705 5706 5707 5709 5710 5712 5714 5715 5716 5717 5718 5719 5721 5722 5724 5725 5726 5727 5728 5729 5730 5731 5731
5691 5691 5690 5689 5689 5689 5689 5689 5688 5688 5688 5688 5689 5689 5690 5691 5692 5694 5695 5697 5699 5701 5703 5704 5705 5706 5708 5709 5711 5712 5714 5715 5716 5717 5717 5718 5720 5721
5674 5673 5672 5672 5671 5671 5672 5672 5672 5672 5672 5673 5673 5674 5675 5676 5678 5679 5680 5682 5685 5687 5689 5691 5692 5693 5695 5697 5699 5700 5702 5703 5704 5705 5706 5708 5709 5710
5655 5655 5654 5653 5653 5653 5653 5654 5654 5655 5656 5656 5657 5658 5659 5660 5662 5663 5665 5667 5670 5672 5674 5676 5678 5680 5682 5685 5687 5688 5689 5690 5692 5693 5694 5696 5697 5698
5636 5635 5634 5634 5634 5634 5634 5635 5636 5637 5638 5639 5640 5641 5642 5644 5646 5648 5650 5652 5654 5657 5660 5662 5665 5667 5669 5671 5673 5675 5677 5678 5680 5681 5683 5684 5685 5686
5616 5615 5614 5614 5613 5614 5614 5615 5617 5618 5619 5621 5622 5624 5625 5627 5629 5632 5634 5637 5639 5642 5645 5648 5650 5652 5655 5657 5660 5662 5664 5666 5667 5669 5671 5673 5674 5675
5597 5596 5595 5594 5594 5594 5595 5595 5597 5599 5601 5603 5605 5607 5609 5611 5613 5616 5618 5621 5624 5627 5630 5633 5636 5638 5641 5643 5646 5648 5651 5653 5654 5656 5659 5660 5662 5664